| time (UTC) | temp F | wind direction | speed MPH | gust MPH | rain 1hr in | rain 24hr in | rain mn in | humidity % | barometer mb |
| 20260831233601 | 85 | 0 | 0.0 | 0.0 | 0.00 | 0.00 | 0.00 | 74 | 1017.5 |
| 20260831232701 | 86 | 0 | 0.0 | 0.0 | 0.00 | 0.00 | 0.00 | 72 | 1017.6 |
| 20260831231801 | 88 | 104 | 0.0 | 1.0 | 0.00 | 0.00 | 0.00 | 68 | 1017.6 |
| 20260831230922 | 90 | 121 | 0.0 | 1.0 | 0.00 | 0.00 | 0.00 | 66 | 1017.7 |
| 20260831230001 | 92 | 118 | 0.0 | 1.0 | 0.00 | 0.00 | 0.00 | 65 | 1017.7 |
| 20260831225401 | 93 | 119 | 0.0 | 1.0 | 0.00 | 0.00 | 0.00 | 62 | 1017.7 |
| 20260831224522 | 94 | 114 | 0.0 | 5.0 | 0.00 | 0.00 | 0.00 | 60 | 1017.7 |
| 20260831223601 | 94 | 94 | 1.0 | 2.0 | 0.00 | 0.00 | 0.00 | 57 | 1017.7 |
| 20260831222702 | 95 | 143 | 0.0 | 3.0 | 0.00 | 0.00 | 0.00 | 59 | 1017.6 |
| 20260831221801 | 96 | 104 | 0.0 | 2.0 | 0.00 | 0.00 | 0.00 | 56 | 1017.6 |
| 20260831220901 | 96 | 119 | 0.0 | 2.0 | 0.00 | 0.00 | 0.00 | 55 | 1017.7 |
| 20260831220002 | 96 | 297 | 0.0 | 2.0 | 0.00 | 0.00 | 0.00 | 55 | 1017.7 |
| 20260831215402 | 96 | 299 | 0.0 | 2.0 | 0.00 | 0.00 | 0.00 | 55 | 1017.8 |
| 20260831214501 | 95 | 127 | 1.0 | 4.0 | 0.00 | 0.00 | 0.00 | 56 | 1017.8 |
| 20260831213602 | 94 | 117 | 1.0 | 4.0 | 0.00 | 0.00 | 0.00 | 56 | 1017.9 |
| 20260831212701 | 94 | 159 | 1.0 | 4.0 | 0.00 | 0.00 | 0.00 | 56 | 1017.9 |
| 20260831211802 | 93 | 128 | 1.0 | 6.0 | 0.00 | 0.00 | 0.00 | 55 | 1017.8 |
| 20260831210923 | 93 | 114 | 0.0 | 4.0 | 0.00 | 0.00 | 0.00 | 56 | 1017.8 |
| 20260831210002 | 94 | 106 | 1.0 | 2.0 | 0.00 | 0.00 | 0.00 | 55 | 1017.8 |
| 20260831205401 | 94 | 42 | 1.0 | 4.0 | 0.00 | 0.00 | 0.00 | 56 | 1017.8 |
| 20260831204502 | 95 | 108 | 1.0 | 6.0 | 0.00 | 0.00 | 0.00 | 53 | 1018.0 |
| 20260831203601 | 95 | 127 | 1.0 | 5.0 | 0.00 | 0.00 | 0.00 | 55 | 1018.0 |
| 20260831202723 | 93 | 154 | 1.0 | 4.0 | 0.00 | 0.00 | 0.00 | 56 | 1018.1 |
| 20260831201802 | 92 | 331 | 1.0 | 3.0 | 0.00 | 0.00 | 0.00 | 61 | 1018.2 |
| 20260831200923 | 94 | 80 | 1.0 | 5.0 | 0.00 | 0.00 | 0.00 | 57 | 1018.4 |
| 20260831200002 | 95 | 143 | 2.0 | 6.0 | 0.00 | 0.00 | 0.00 | 57 | 1018.3 |
| 20260831195402 | 94 | 143 | 1.0 | 4.0 | 0.00 | 0.00 | 0.00 | 55 | 1018.3 |
| 20260831194502 | 94 | 76 | 1.0 | 4.0 | 0.00 | 0.00 | 0.00 | 57 | 1018.4 |
| 20260831193602 | 93 | 311 | 1.0 | 5.0 | 0.00 | 0.00 | 0.00 | 59 | 1018.5 |
| 20260831192702 | 94 | 123 | 3.0 | 9.0 | 0.00 | 0.00 | 0.00 | 56 | 1018.6 |
| 20260831191802 | 94 | 106 | 3.0 | 6.0 | 0.00 | 0.00 | 0.00 | 57 | 1018.7 |
| 20260831190902 | 95 | 117 | 3.0 | 7.0 | 0.00 | 0.00 | 0.00 | 58 | 1018.9 |
| 20260831190002 | 96 | 93 | 2.0 | 5.0 | 0.00 | 0.00 | 0.00 | 56 | 1018.9 |
| 20260831185402 | 95 | 85 | 2.0 | 6.0 | 0.00 | 0.00 | 0.00 | 56 | 1019.1 |
| 20260831184502 | 94 | 72 | 2.0 | 6.0 | 0.00 | 0.00 | 0.00 | 60 | 1019.3 |
| 20260831183623 | 94 | 130 | 2.0 | 6.0 | 0.00 | 0.00 | 0.00 | 59 | 1019.4 |
| 20260831182723 | 94 | 134 | 2.0 | 7.0 | 0.00 | 0.00 | 0.00 | 58 | 1019.3 |
| 20260831181823 | 94 | 132 | 2.0 | 6.0 | 0.00 | 0.00 | 0.00 | 59 | 1019.5 |
| 20260831180902 | 93 | 192 | 1.0 | 3.0 | 0.00 | 0.00 | 0.00 | 58 | 1019.7 |
| 20260831180002 | 92 | 48 | 2.0 | 6.0 | 0.00 | 0.00 | 0.00 | 60 | 1019.8 |
| 20260831175423 | 93 | 358 | 2.0 | 7.0 | 0.00 | 0.00 | 0.00 | 60 | 1019.8 |
| 20260831174523 | 93 | 102 | 3.0 | 7.0 | 0.00 | 0.00 | 0.00 | 61 | 1019.9 |
| 20260831173602 | 93 | 110 | 2.0 | 6.0 | 0.00 | 0.00 | 0.00 | 60 | 1019.8 |
| 20260831172702 | 92 | 168 | 1.0 | 4.0 | 0.00 | 0.00 | 0.00 | 61 | 1019.8 |
| 20260831171823 | 92 | 90 | 1.0 | 3.0 | 0.00 | 0.00 | 0.00 | 64 | 1019.9 |
| 20260831170902 | 91 | 192 | 1.0 | 4.0 | 0.00 | 0.00 | 0.00 | 64 | 1020.0 |
| 20260831170002 | 92 | 88 | 1.0 | 5.0 | 0.00 | 0.00 | 0.00 | 64 | 1020.1 |
| 20260831165402 | 92 | 43 | 0.0 | 3.0 | 0.00 | 0.00 | 0.00 | 64 | 1020.1 |
| 20260831164502 | 91 | 148 | 1.0 | 5.0 | 0.00 | 0.00 | 0.00 | 65 | 1020.2 |
| 20260831163602 | 90 | 129 | 2.0 | 5.0 | 0.00 | 0.00 | 0.00 | 63 | 1020.2 |
| 20260831162702 | 91 | 115 | 2.0 | 8.0 | 0.00 | 0.00 | 0.00 | 68 | 1020.3 |
| 20260831161802 | 90 | 59 | 2.0 | 4.0 | 0.00 | 0.00 | 0.00 | 67 | 1020.5 |
| 20260831160903 | 90 | 42 | 2.0 | 4.0 | 0.00 | 0.00 | 0.00 | 67 | 1020.6 |
| 20260831160024 | 89 | 157 | 1.0 | 4.0 | 0.00 | 0.00 | 0.00 | 68 | 1020.6 |
| 20260831155403 | 88 | 123 | 1.0 | 4.0 | 0.00 | 0.00 | 0.00 | 69 | 1020.6 |
| 20260831154523 | 88 | 118 | 2.0 | 6.0 | 0.00 | 0.00 | 0.00 | 71 | 1020.7 |
| 20260831153602 | 86 | 293 | 2.0 | 5.0 | 0.00 | 0.00 | 0.00 | 75 | 1020.8 |
| 20260831152703 | 87 | 314 | 1.0 | 6.0 | 0.00 | 0.00 | 0.00 | 74 | 1020.7 |
| 20260831151803 | 86 | 91 | 2.0 | 6.0 | 0.00 | 0.00 | 0.00 | 75 | 1020.8 |
| 20260831150902 | 84 | 294 | 2.0 | 5.0 | 0.00 | 0.00 | 0.00 | 79 | 1020.8 |
| 20260831150002 | 83 | 260 | 1.0 | 2.0 | 0.00 | 0.00 | 0.00 | 82 | 1020.7 |
| 20260831145402 | 82 | 295 | 1.0 | 3.0 | 0.00 | 0.00 | 0.00 | 83 | 1020.7 |
| 20260831144502 | 82 | 308 | 2.0 | 4.0 | 0.00 | 0.00 | 0.00 | 83 | 1020.7 |
| 20260831143603 | 82 | 290 | 2.0 | 5.0 | 0.00 | 0.00 | 0.00 | 84 | 1020.7 |
| 20260831142703 | 81 | 283 | 2.0 | 6.0 | 0.00 | 0.00 | 0.00 | 85 | 1020.8 |
| 20260831141803 | 81 | 331 | 1.0 | 4.0 | 0.00 | 0.00 | 0.00 | 86 | 1020.8 |
| 20260831140903 | 80 | 307 | 2.0 | 6.0 | 0.00 | 0.00 | 0.00 | 88 | 1020.7 |
| 20260831140003 | 79 | 314 | 1.0 | 4.0 | 0.00 | 0.00 | 0.00 | 89 | 1020.8 |
| 20260831135403 | 78 | 296 | 2.0 | 5.0 | 0.00 | 0.00 | 0.00 | 89 | 1020.8 |
| 20260831134502 | 78 | 297 | 2.0 | 4.0 | 0.00 | 0.00 | 0.00 | 92 | 1020.7 |
| 20260831133603 | 77 | 316 | 2.0 | 6.0 | 0.00 | 0.00 | 0.00 | 94 | 1020.7 |
| 20260831132702 | 76 | 314 | 1.0 | 3.0 | 0.00 | 0.00 | 0.00 | 98 | 1020.6 |
| 20260831131803 | 75 | 282 | 0.0 | 2.0 | 0.00 | 0.00 | 0.00 | 99 | 1020.5 |
| 20260831130903 | 74 | 313 | 0.0 | 2.0 | 0.00 | 0.00 | 0.00 | 99 | 1020.5 |
| 20260831130003 | 74 | 9 | 0.0 | 1.0 | 0.00 | 0.00 | 0.00 | 99 | 1020.5 |
| 20260831125403 | 73 | 17 | 0.0 | 1.0 | 0.00 | 0.00 | 0.00 | 99 | 1020.5 |
| 20260831124503 | 73 | 18 | 0.0 | 1.0 | 0.00 | 0.00 | 0.00 | 99 | 1020.5 |
| 20260831123603 | 72 | 45 | 0.0 | 1.0 | 0.00 | 0.00 | 0.00 | 99 | 1020.5 |
| 20260831122703 | 71 | 0 | 0.0 | 0.0 | 0.00 | 0.00 | 0.00 | 99 | 1020.5 |
| 20260831121824 | 70 | 0 | 0.0 | 0.0 | 0.00 | 0.00 | 0.00 | 99 | 1020.6 |
| 20260831120903 | 70 | 0 | 0.0 | 0.0 | 0.00 | 0.00 | 0.00 | 98 | 1020.6 |
| 20260831120003 | 69 | 113 | 0.0 | 3.0 | 0.00 | 0.00 | 0.00 | 98 | 1020.4 |
| 20260831115404 | 69 | 113 | 0.0 | 3.0 | 0.00 | 0.00 | 0.00 | 98 | 1020.4 |
| 20260831114503 | 68 | 0 | 0.0 | 0.0 | 0.00 | 0.00 | 0.00 | 98 | 1020.3 |
| 20260831113603 | 68 | 0 | 0.0 | 0.0 | 0.00 | 0.00 | 0.00 | 98 | 1020.3 |
| 20260831112703 | 68 | 0 | 0.0 | 0.0 | 0.00 | 0.00 | 0.00 | 97 | 1020.2 |
| 20260831111803 | 68 | 0 | 0.0 | 0.0 | 0.00 | 0.00 | 0.00 | 97 | 1020.2 |
| 20260831110903 | 68 | 0 | 0.0 | 0.0 | 0.00 | 0.00 | 0.00 | 98 | 1020.1 |
| 20260831110003 | 68 | 0 | 0.0 | 0.0 | 0.00 | 0.00 | 0.00 | 97 | 1020.1 |
| 20260831105403 | 68 | 0 | 0.0 | 0.0 | 0.00 | 0.00 | 0.00 | 97 | 1020.1 |
| 20260831104503 | 68 | 0 | 0.0 | 0.0 | 0.00 | 0.00 | 0.00 | 98 | 1020.1 |
| 20260831103603 | 69 | 0 | 0.0 | 0.0 | 0.00 | 0.00 | 0.00 | 97 | 1020.1 |
| 20260831102724 | 69 | 0 | 0.0 | 0.0 | 0.00 | 0.00 | 0.00 | 97 | 1020.1 |
| 20260831101803 | 69 | 0 | 0.0 | 0.0 | 0.00 | 0.00 | 0.00 | 98 | 1020.0 |
| 20260831100903 | 69 | 0 | 0.0 | 0.0 | 0.00 | 0.00 | 0.00 | 98 | 1019.9 |
| 20260831100000 | 69 | 0 | 0.0 | 0.0 | 0.00 | 0.00 | 0.00 | 98 | 1019.9 |
| 20260831095359 | 69 | 0 | 0.0 | 0.0 | 0.00 | 0.00 | 0.00 | 97 | 1019.8 |
| 20260831094501 | 68 | 0 | 0.0 | 0.0 | 0.00 | 0.00 | 0.00 | 97 | 1019.8 |
| 20260831093600 | 68 | 0 | 0.0 | 0.0 | 0.00 | 0.00 | 0.00 | 97 | 1019.9 |
| 20260831092700 | 69 | 0 | 0.0 | 0.0 | 0.00 | 0.00 | 0.00 | 97 | 1019.9 |
| 20260831091800 | 69 | 0 | 0.0 | 0.0 | 0.00 | 0.00 | 0.00 | 97 | 1019.9 |
| 20260831090900 | 69 | 0 | 0.0 | 0.0 | 0.00 | 0.00 | 0.00 | 97 | 1019.9 |
| 20260831090000 | 69 | 0 | 0.0 | 0.0 | 0.00 | 0.00 | 0.00 | 97 | 1019.8 |
| 20260831085400 | 69 | 0 | 0.0 | 0.0 | 0.00 | 0.00 | 0.00 | 97 | 1019.8 |
| 20260831084500 | 69 | 0 | 0.0 | 0.0 | 0.00 | 0.00 | 0.00 | 97 | 1019.8 |
| 20260831083600 | 70 | 0 | 0.0 | 0.0 | 0.00 | 0.00 | 0.00 | 97 | 1019.7 |
| 20260831082700 | 69 | 0 | 0.0 | 0.0 | 0.00 | 0.00 | 0.00 | 97 | 1019.6 |
| 20260831081821 | 70 | 0 | 0.0 | 0.0 | 0.00 | 0.00 | 0.00 | 97 | 1019.5 |
| 20260831080900 | 69 | 0 | 0.0 | 0.0 | 0.00 | 0.00 | 0.00 | 97 | 1019.4 |
| 20260831080000 | 69 | 0 | 0.0 | 0.0 | 0.00 | 0.00 | 0.00 | 97 | 1019.5 |
| 20260831075421 | 69 | 0 | 0.0 | 0.0 | 0.00 | 0.00 | 0.00 | 97 | 1019.5 |
| 20260831074500 | 70 | 0 | 0.0 | 0.0 | 0.00 | 0.00 | 0.00 | 97 | 1019.5 |
| 20260831072700 | 70 | 0 | 0.0 | 0.0 | 0.00 | 0.00 | 0.00 | 97 | 1019.3 |
| 20260831071800 | 70 | 0 | 0.0 | 0.0 | 0.00 | 0.00 | 0.00 | 97 | 1019.3 |
| 20260831070900 | 70 | 0 | 0.0 | 0.0 | 0.00 | 0.00 | 0.00 | 97 | 1019.3 |
| 20260831070000 | 70 | 0 | 0.0 | 0.0 | 0.00 | 0.00 | 0.00 | 97 | 1019.3 |
| 20260831065400 | 70 | 0 | 0.0 | 0.0 | 0.00 | 0.00 | 0.00 | 96 | 1019.4 |
| 20260831064500 | 70 | 0 | 0.0 | 0.0 | 0.00 | 0.00 | 0.00 | 97 | 1019.4 |
| 20260831063621 | 71 | 0 | 0.0 | 0.0 | 0.00 | 0.00 | 0.00 | 97 | 1019.6 |
| 20260831062700 | 71 | 0 | 0.0 | 0.0 | 0.00 | 0.00 | 0.00 | 97 | 1019.6 |
| 20260831061800 | 71 | 0 | 0.0 | 0.0 | 0.00 | 0.00 | 0.00 | 97 | 1019.6 |
| 20260831060900 | 71 | 0 | 0.0 | 0.0 | 0.00 | 0.00 | 0.00 | 97 | 1019.5 |
| 20260831060000 | 71 | 0 | 0.0 | 0.0 | 0.00 | 0.00 | 0.00 | 96 | 1019.5 |
| 20260831055400 | 71 | 0 | 0.0 | 0.0 | 0.00 | 0.00 | 0.00 | 96 | 1019.7 |
| 20260831054500 | 71 | 0 | 0.0 | 0.0 | 0.00 | 0.00 | 0.00 | 96 | 1019.8 |
| 20260831053600 | 71 | 0 | 0.0 | 0.0 | 0.00 | 0.00 | 0.00 | 96 | 1019.8 |
| 20260831052700 | 71 | 0 | 0.0 | 0.0 | 0.00 | 0.00 | 0.00 | 96 | 1020.0 |
| 20260831051801 | 72 | 0 | 0.0 | 0.0 | 0.00 | 0.00 | 0.00 | 96 | 1020.0 |
| 20260831050900 | 72 | 0 | 0.0 | 0.0 | 0.00 | 0.00 | 0.00 | 96 | 1019.9 |
| 20260831050000 | 72 | 0 | 0.0 | 0.0 | 0.00 | 0.00 | 0.00 | 96 | 1020.0 |
| 20260831045400 | 72 | 0 | 0.0 | 0.0 | 0.00 | 0.00 | 0.00 | 96 | 1019.9 |
| 20260831044500 | 72 | 0 | 0.0 | 0.0 | 0.00 | 0.00 | 0.00 | 95 | 1020.0 |
| 20260831043601 | 72 | 0 | 0.0 | 0.0 | 0.00 | 0.00 | 0.00 | 95 | 1020.1 |
| 20260831042700 | 72 | 0 | 0.0 | 0.0 | 0.00 | 0.00 | 0.00 | 95 | 1020.0 |
| 20260831041801 | 72 | 0 | 0.0 | 0.0 | 0.00 | 0.00 | 0.00 | 95 | 1020.1 |
| 20260831040000 | 72 | 0 | 0.0 | 0.0 | 0.00 | 0.00 | 0.00 | 95 | 1020.0 |
| 20260831035400 | 72 | 0 | 0.0 | 0.0 | 0.00 | 0.00 | 0.00 | 95 | 1020.0 |
| 20260831034501 | 72 | 0 | 0.0 | 0.0 | 0.00 | 0.00 | 0.00 | 94 | 1020.1 |
| 20260831033600 | 73 | 0 | 0.0 | 0.0 | 0.00 | 0.00 | 0.00 | 94 | 1020.1 |
| 20260831032701 | 73 | 0 | 0.0 | 0.0 | 0.00 | 0.00 | 0.00 | 94 | 1020.2 |
| 20260831031801 | 73 | 0 | 0.0 | 0.0 | 0.00 | 0.00 | 0.00 | 94 | 1020.1 |
| 20260831030900 | 73 | 0 | 0.0 | 0.0 | 0.00 | 0.00 | 0.00 | 94 | 1020.1 |
| 20260831030001 | 73 | 0 | 0.0 | 0.0 | 0.00 | 0.00 | 0.00 | 94 | 1020.0 |
| 20260831025422 | 74 | 0 | 0.0 | 0.0 | 0.00 | 0.00 | 0.00 | 94 | 1020.0 |
| 20260831024501 | 74 | 0 | 0.0 | 0.0 | 0.00 | 0.00 | 0.00 | 93 | 1020.1 |
| 20260831023622 | 74 | 0 | 0.0 | 0.0 | 0.00 | 0.00 | 0.00 | 93 | 1020.1 |
| 20260831022701 | 74 | 0 | 0.0 | 0.0 | 0.00 | 0.00 | 0.00 | 93 | 1020.1 |
| 20260831021822 | 74 | 0 | 0.0 | 0.0 | 0.00 | 0.00 | 0.00 | 93 | 1020.1 |
| 20260831020901 | 74 | 0 | 0.0 | 0.0 | 0.00 | 0.00 | 0.00 | 92 | 1020.0 |
| 20260831020001 | 74 | 0 | 0.0 | 0.0 | 0.00 | 0.00 | 0.00 | 91 | 1019.8 |
| 20260831015401 | 75 | 0 | 0.0 | 0.0 | 0.00 | 0.00 | 0.00 | 92 | 1019.9 |
| 20260831014501 | 75 | 0 | 0.0 | 0.0 | 0.00 | 0.00 | 0.00 | 91 | 1019.9 |
| 20260831013601 | 75 | 0 | 0.0 | 0.0 | 0.00 | 0.00 | 0.00 | 91 | 1020.0 |
| 20260831012701 | 76 | 0 | 0.0 | 0.0 | 0.00 | 0.00 | 0.00 | 90 | 1019.9 |
| 20260831011822 | 76 | 0 | 0.0 | 0.0 | 0.00 | 0.00 | 0.00 | 90 | 1019.7 |
| 20260831010901 | 76 | 0 | 0.0 | 0.0 | 0.00 | 0.00 | 0.00 | 89 | 1019.6 |
| 20260831010001 | 77 | 0 | 0.0 | 0.0 | 0.00 | 0.00 | 0.00 | 89 | 1019.6 |
| 20260831005401 | 77 | 0 | 0.0 | 0.0 | 0.00 | 0.00 | 0.00 | 89 | 1019.5 |
| 20260831004522 | 77 | 0 | 0.0 | 0.0 | 0.00 | 0.00 | 0.00 | 88 | 1019.4 |
| 20260831003601 | 78 | 0 | 0.0 | 0.0 | 0.00 | 0.00 | 0.00 | 88 | 1019.4 |
| 20260831002722 | 79 | 0 | 0.0 | 0.0 | 0.00 | 0.00 | 0.00 | 87 | 1019.3 |
| 20260831001801 | 79 | 0 | 0.0 | 0.0 | 0.00 | 0.00 | 0.00 | 85 | 1019.3 |
| 20260831000901 | 80 | 0 | 0.0 | 0.0 | 0.00 | 0.00 | 0.00 | 84 | 1019.3 |
| 20260831000001 | 82 | 0 | 0.0 | 0.0 | 0.00 | 0.00 | 0.00 | 83 | 1019.2 |
| 20260830235401 | 82 | 0 | 0.0 | 0.0 | 0.00 | 0.00 | 0.00 | 82 | 1019.1 |
| 20260830234523 | 83 | 0 | 0.0 | 0.0 | 0.00 | 0.00 | 0.00 | 81 | 1019.0 |